Wetbulb
58.79 58.79 58.87 58.67 58.62 58.81 58.71 58.78 58.55 58.59 58.90 59.42 59.36 59.39 59.13 59.05 58.44 55.99 50.45 57.07 58.57 65.62 63.49 55.31 53.14 53.71 53.65 52.93 51.66 50.56 50.61 49.39 51.92 55.69 57.75 60.85 58.01 60.52 62.67 58.90 60.99 60.82 59.10 59.34 65.25
58.00 58.22 58.28 58.15 57.95 58.02 58.07 58.46 58.59 58.68 59.02 59.42 59.31 59.37 59.03 58.75 56.14 53.71 60.71 64.75 66.32 66.41 55.12 52.05 52.37 53.46 52.72 51.44 51.82 51.29 50.54 49.48 51.92 59.56 59.62 60.50 58.79 60.93 58.99 58.95 59.93 61.10 62.71 62.95 65.34
57.43 57.61 57.44 57.54 57.64 57.24 57.30 57.61 58.29 58.52 58.80 58.97 59.56 59.29 58.80 58.64 56.21 57.64 66.85 65.03 67.57 65.53 55.07 54.51 55.04 54.45 51.67 50.77 50.05 49.51 50.31 53.26 56.12 60.72 61.35 60.41 60.18 61.71 59.24 58.04 60.76 60.70 61.34 61.31 63.03
56.86 56.86 56.88 56.61 56.95 57.04 56.89 57.00 57.70 58.04 58.35 58.13 59.22 59.04 58.83 57.45 50.32 59.57 69.25 66.70 66.45 58.98 56.30 55.10 53.96 51.22 50.51 49.99 50.51 48.81 55.68 59.22 59.84 60.76 60.96 59.97 62.04 60.29 60.46 59.43 62.97 63.44 63.48 62.00 62.68
56.77 56.47 56.55 55.97 56.19 56.53 56.56 56.79 57.02 57.18 57.63 57.72 58.59 58.79 58.00 55.48 56.27 65.73 69.81 67.57 59.94 56.58 53.83 52.94 52.57 51.14 50.43 50.10 50.37 49.58 57.44 59.76 60.01 61.23 60.70 61.50 60.37 60.15 60.18 63.34 63.58 63.55 64.11 63.27 63.22
56.11 56.23 55.87 55.63 55.63 55.95 56.16 56.15 56.17 56.53 56.92 57.07 58.42 58.54 58.96 53.05 60.84 63.67 61.46 57.29 56.51 55.64 53.94 53.02 53.54 53.08 51.30 50.18 50.49 57.45 60.03 59.47 60.29 60.60 60.41 59.59 59.15 59.90 61.34 63.47 62.29 62.95 63.74 64.70 65.05
55.69 55.53 55.37 54.98 55.29 55.79 55.95 55.69 56.15 57.47 57.05 57.35 58.70 59.02 57.14 56.39 62.66 60.34 57.60 56.27 56.58 55.52 52.75 55.09 55.68 52.22 51.71 56.24 60.85 60.05 57.96 59.72 59.74 59.89 58.97 59.94 57.41 57.97 62.04 63.00 61.85 62.45 63.63 64.22 65.30
55.51 55.04 54.69 54.76 55.04 55.70 55.72 55.58 57.58 57.30 57.57 59.17 59.36 59.34 54.81 61.19 60.69 56.30 56.36 56.15 56.85 56.80 55.98 56.26 55.40 52.82 56.65 60.64 55.85 57.54 57.98 55.45 58.04 59.69 58.76 59.17 55.90 58.43 62.44 62.08 61.18 61.81 62.87 63.35 64.41
55.10 54.28 54.30 54.79 55.11 55.40 54.87 55.26 58.77 59.75 59.60 59.91 59.29 58.07 51.73 60.59 58.35 60.64 57.28 55.95 57.23 56.41 56.63 54.64 52.49 49.57 51.52 55.71 54.85 52.54 52.54 53.78 55.37 59.91 58.68 58.71 57.19 58.66 62.41 62.27 61.43 62.58 63.46 63.92 65.10
54.04 53.65 53.83 54.41 54.79 54.48 54.10 55.27 59.50 59.40 59.49 59.73 58.85 53.35 55.08 55.72 56.15 58.20 58.74 57.31 54.65 53.52 52.32 51.95 51.14 49.43 47.40 53.50 48.16 50.21 51.59 53.03 53.71 58.29 58.20 57.42 57.89 59.20 60.77 61.77 61.81 63.30 64.18 64.88 65.44
53.11 53.34 53.67 54.12 54.34 53.51 53.95 53.99 53.42 53.21 53.57 52.02 52.13 51.30 52.27 55.91 57.19 56.19 57.23 57.04 55.10 53.20 50.08 49.91 48.18 46.85 46.67 46.79 50.24 48.95 49.84 53.56 53.71 57.81 57.96 57.53 58.03 59.86 60.69 61.06 61.39 63.02 64.51 65.64 66.56
52.57 52.80 53.77 53.67 53.42 53.53 53.24 51.67 50.21 50.61 47.09 52.89 52.22 51.96 53.73 55.75 51.25 54.43 56.00 53.70 52.44 49.30 49.57 48.99 46.16 48.44 46.61 46.03 46.14 46.34 46.45 50.48 48.28 49.13 57.72 57.20 57.07 59.60 59.70 61.08 61.67 62.68 64.26 65.67 67.14
52.37 52.60 53.37 53.24 52.55 51.33 51.27 50.98 51.31 52.17 48.46 50.58 51.64 51.06 52.29 54.02 51.08 52.26 54.92 53.06 51.03 48.86 48.57 47.11 47.50 48.63 47.76 46.00 45.60 45.47 45.73 45.90 46.65 51.83 55.18 53.05 51.60 54.41 58.44 60.82 62.43 63.29 65.20 66.54 67.14
52.05 52.40 52.85 52.01 50.07 48.28 48.28 50.95 50.63 51.84 46.13 47.04 51.72 52.54 53.22 53.35 50.93 55.55 56.12 53.80 50.39 49.00 48.32 48.32 49.65 48.53 47.66 47.39 48.22 45.34 47.67 47.62 49.15 49.76 45.84 52.89 44.45 53.01 56.72 58.03 60.31 62.53 63.82 65.26 66.97
51.88 51.83 52.09 51.53 47.85 47.10 47.66 50.99 52.74 52.02 36.44 50.06 51.27 55.25 53.15 52.33 52.60 52.20 54.77 53.30 49.88 49.04 49.06 47.60 47.60 47.79 46.92 48.05 49.15 48.11 48.71 47.92 49.93 48.88 48.26 50.15 47.89 50.82 54.66 55.63 58.63 61.49 63.40 65.16 66.70
51.63 51.44 51.05 49.80 48.21 49.38 50.70 50.99 53.54 44.80 36.16 48.40 50.33 49.23 49.39 50.66 50.98 51.93 52.16 53.89 53.14 49.51 48.79 49.15 50.13 49.75 49.43 49.92 49.29 49.15 48.57 48.23 47.21 46.91 42.75 47.63 49.00 46.91 50.74 56.20 58.27 61.80 63.49 64.62 66.08
51.25 50.94 49.76 50.66 48.73 51.24 50.57 52.99 44.51 38.66 46.36 47.73 47.90 49.14 48.47 48.23 48.87 50.39 49.88 49.28 47.88 44.69 45.02 47.29 47.79 50.13 50.93 48.71 49.15 48.94 49.09 43.48 41.79 41.70 41.35 44.93 46.30 49.14 53.83 53.26 56.71 61.12 63.32 64.79 65.86
49.85 49.52 50.17 50.52 51.36 51.02 50.32 49.19 38.22 41.45 43.40 49.65 47.90 47.86 47.17 47.89 48.04 48.95 48.03 47.40 47.54 47.57 45.29 43.89 42.33 47.78 50.72 50.24 49.26 48.58 49.29 43.66 38.11 39.30 41.78 43.72 42.85 47.14 53.16 53.70 57.13 59.23 61.23 60.56 62.23
48.75 50.07 50.62 51.65 51.38 50.49 50.12 41.32 41.23 42.08 46.18 45.91 46.33 45.92 45.88 47.50 48.04 48.03 47.44 47.17 48.89 49.00 46.04 43.72 43.50 48.95 49.64 50.71 50.69 46.39 45.41 48.06 43.86 41.78 41.89 44.59 46.49 51.48 54.49 55.44 57.20 60.75 61.87 60.97 59.97
47.30 47.92 49.11 51.74 52.83 51.52 46.99 39.85 42.66 44.55 48.13 46.56 42.33 46.25 43.88 45.67 46.26 47.27 47.07 48.96 47.98 49.23 51.54 49.09 43.79 47.77 49.62 50.95 49.70 48.99 48.90 45.31 45.38 39.75 38.30 42.65 43.90 46.67 52.56 54.90 56.68 59.31 61.50 62.14 62.44
47.03 45.13 50.38 52.98 51.54 51.16 41.21 42.12 43.67 47.51 49.00 46.06 44.71 44.93 45.48 45.30 45.75 45.44 46.27 49.89 50.18 48.75 49.50 49.09 48.47 46.84 48.66 48.40 48.21 46.89 46.42 45.62 47.30 45.76 41.88 40.65 44.12 53.72 54.59 57.05 57.37 58.99 61.61 63.01 63.26
43.94 42.77 49.40 52.52 46.97 45.25 44.52 44.89 45.40 48.54 49.64 48.62 48.02 46.90 45.51 45.79 45.69 45.78 45.55 49.67 52.19 51.48 48.52 49.68 48.68 44.61 46.40 48.91 50.25 49.64 49.15 49.82 45.22 44.02 44.00 43.99 44.88 52.68 55.68 56.71 57.92 59.16 61.01 63.46 63.98
41.96 42.80 50.88 51.62 42.13 42.95 45.10 46.65 48.10 48.15 48.61 47.99 47.15 48.15 48.19 46.56 44.58 46.15 48.01 51.48 51.44 52.25 50.83 50.33 47.31 43.98 45.82 47.61 49.12 48.62 48.50 48.98 47.85 47.69 44.58 42.88 45.18 53.54 53.68 54.11 56.16 57.39 59.25 61.83 63.47
43.65 39.71 45.69 48.00 45.71 43.87 42.97 44.48 44.58 49.79 48.93 49.86 48.79 49.18 47.76 46.08 48.03 46.68 46.15 49.92 52.04 52.22 54.94 54.86 48.28 48.29 43.50 46.11 48.15 46.86 47.46 47.73 49.37 46.47 46.50 45.84 48.21 51.85 53.44 54.37 56.79 57.41 58.28 58.78 61.93
42.93 39.21 42.71 40.68 43.19 42.87 42.78 43.86 43.93 44.64 48.84 49.19 47.28 47.31 47.09 44.82 45.35 45.20 47.43 48.72 51.03 54.46 52.18 53.30 48.91 47.39 48.13 47.68 46.68 47.98 47.47 47.48 46.47 49.00 46.38 48.28 47.76 52.08 54.89 55.06 56.33 57.78 57.18 56.94 57.83
40.54 41.79 44.31 43.01 42.69 42.27 41.92 42.55 43.36 44.23 45.57 45.76 46.37 47.74 47.37 45.47 46.58 45.34 47.73 48.55 48.74 51.45 51.63 50.34 48.37 47.84 46.23 48.60 48.29 46.69 49.02 48.86 48.38 48.60 47.95 48.76 48.86 54.37 55.76 55.38 54.57 56.05 56.93 56.20 57.25
44.39 45.17 44.06 39.43 39.82 40.18 41.56 42.50 42.68 44.22 46.48 46.78 45.35 44.84 44.85 46.58 48.30 49.73 50.67 50.91 50.83 50.01 50.05 50.08 48.85 46.55 43.27 48.03 47.71 43.85 47.65 48.95 49.83 50.85 50.46 47.70 51.92 54.44 53.50 54.39 55.48 56.64 57.34 56.92 57.38
MSLP
1019.52 1018.96 1018.43 1017.86 1017.37 1016.85 1016.41 1015.92 1015.53 1015.25 1015.05 1014.90 1014.91 1014.92 1014.91 1014.78 1014.45 1014.15 1012.60 1010.73 1010.73 1010.77 1011.04 1011.12 1011.04 1010.93 1010.80 1010.52 1010.59 1010.49 1009.72 1009.14 1009.26 1009.49 1009.38 1010.13 1010.24 1011.16 1011.37 1011.47 1012.04 1012.62 1013.09 1013.90 1015.27
1019.64 1019.09 1018.49 1017.85 1017.22 1016.73 1016.27 1015.70 1015.33 1015.07 1014.87 1014.65 1014.63 1014.72 1014.79 1014.70 1014.19 1012.81 1010.47 1010.57 1010.62 1010.74 1010.76 1010.65 1010.63 1010.72 1010.40 1010.31 1010.32 1009.90 1009.65 1009.15 1009.36 1009.28 1009.09 1009.82 1010.14 1010.77 1011.02 1011.57 1012.01 1012.64 1013.68 1014.46 1015.50
1019.72 1019.11 1018.46 1017.82 1017.13 1016.55 1016.01 1015.55 1015.18 1014.87 1014.62 1014.44 1014.42 1014.57 1014.71 1014.62 1013.46 1010.61 1009.86 1010.40 1010.50 1010.60 1010.54 1010.47 1010.41 1010.28 1010.08 1010.22 1010.15 1010.01 1009.49 1009.64 1009.42 1009.37 1009.49 1009.98 1010.46 1010.95 1010.87 1011.29 1011.47 1012.06 1013.26 1014.37 1015.16
1019.78 1019.14 1018.58 1017.73 1016.96 1016.31 1015.73 1015.30 1014.87 1014.56 1014.39 1014.22 1014.21 1014.38 1014.53 1014.31 1012.15 1009.94 1009.84 1010.18 1010.36 1010.63 1010.56 1010.35 1010.20 1009.95 1009.77 1009.80 1009.94 1009.92 1009.85 1009.93 1009.91 1009.85 1009.73 1010.05 1010.60 1010.75 1010.79 1010.76 1011.14 1011.86 1013.11 1014.12 1014.81
1019.66 1019.01 1018.30 1017.60 1016.92 1016.14 1015.40 1014.86 1014.53 1014.17 1014.02 1013.96 1013.98 1014.06 1014.15 1013.13 1010.67 1009.86 1009.80 1010.26 1010.47 1010.69 1010.46 1010.10 1009.85 1009.74 1009.43 1009.68 1009.98 1009.99 1010.05 1010.33 1010.48 1010.13 1010.38 1010.54 1010.69 1010.76 1010.89 1010.96 1011.27 1012.15 1013.37 1013.81 1014.42
1019.62 1018.95 1018.23 1017.47 1016.71 1015.94 1015.16 1014.39 1013.90 1013.58 1013.59 1013.68 1013.79 1013.90 1013.39 1011.52 1009.79 1009.95 1009.83 1010.24 1010.39 1010.51 1010.32 1010.14 1009.75 1009.62 1009.58 1009.82 1010.04 1010.50 1010.41 1010.56 1010.54 1010.39 1010.65 1010.59 1010.78 1010.92 1010.92 1011.30 1011.81 1012.40 1012.95 1013.52 1014.08
1019.69 1018.97 1018.24 1017.44 1016.58 1015.82 1014.96 1014.12 1013.42 1012.98 1013.10 1013.35 1013.54 1013.45 1012.45 1010.35 1009.54 1009.96 1009.80 1009.88 1010.37 1010.46 1010.08 1010.06 1009.91 1009.71 1009.69 1009.84 1010.48 1010.56 1010.40 1010.36 1010.63 1010.55 1010.81 1010.78 1010.68 1010.43 1010.88 1011.28 1011.71 1012.33 1012.79 1013.24 1013.76
1019.63 1018.88 1018.08 1017.23 1016.24 1015.51 1014.86 1014.13 1013.45 1013.12 1013.10 1013.22 1013.41 1013.02 1010.95 1009.53 1009.71 1009.92 1009.82 1009.73 1010.11 1010.44 1010.21 1010.05 1010.03 1009.83 1009.84 1010.19 1010.20 1010.04 1010.16 1009.90 1010.67 1010.64 1011.09 1010.89 1009.57 1010.28 1010.78 1011.00 1011.49 1012.16 1012.82 1013.34 1013.88
1019.62 1018.78 1017.98 1017.14 1016.04 1015.28 1014.72 1013.97 1013.58 1013.30 1013.25 1013.34 1013.22 1012.42 1010.10 1009.84 1009.50 1009.03 1009.28 1009.13 1009.57 1010.03 1010.05 1010.05 1009.99 1010.18 1010.24 1009.72 1009.60 1009.76 1009.18 1009.63 1010.15 1010.58 1010.71 1010.57 1009.73 1010.53 1010.72 1010.98 1011.31 1011.95 1012.58 1013.16 1013.65
1019.72 1018.83 1017.89 1017.04 1016.09 1015.00 1014.32 1013.80 1013.50 1013.29 1013.31 1013.18 1012.61 1012.10 1009.80 1009.18 1008.74 1008.79 1009.03 1009.09 1009.09 1009.47 1009.77 1009.77 1009.88 1009.86 1010.00 1009.59 1008.63 1008.86 1009.17 1009.60 1009.62 1010.21 1010.43 1010.19 1009.80 1010.40 1010.79 1010.89 1011.04 1011.75 1012.23 1012.80 1013.30
1019.77 1018.85 1017.82 1016.93 1016.08 1015.05 1013.96 1013.47 1013.83 1013.43 1012.76 1012.20 1011.34 1010.65 1009.53 1008.80 1008.56 1008.42 1008.69 1008.91 1008.99 1009.16 1009.32 1009.91 1009.57 1009.28 1009.38 1009.41 1009.15 1008.88 1009.01 1009.10 1009.52 1009.93 1010.17 1009.65 1009.07 1009.78 1010.62 1010.99 1010.97 1011.31 1012.09 1012.54 1013.01
1019.86 1018.92 1017.93 1016.93 1016.08 1015.00 1014.54 1014.51 1015.47 1015.50 1013.32 1011.01 1010.33 1010.14 1009.49 1009.08 1008.69 1008.25 1008.36 1008.53 1008.83 1008.95 1009.47 1009.81 1009.41 1009.55 1009.72 1009.67 1009.41 1009.09 1009.03 1009.20 1009.58 1010.05 1010.26 1009.73 1009.30 1009.62 1010.14 1010.07 1010.45 1010.93 1011.50 1012.11 1012.83
1020.00 1019.13 1018.07 1016.71 1015.91 1015.25 1015.51 1015.26 1015.42 1015.14 1013.97 1010.43 1009.60 1008.99 1008.53 1008.81 1008.39 1007.89 1007.91 1008.03 1008.45 1008.94 1009.17 1009.20 1009.18 1009.64 1009.61 1009.79 1009.68 1009.52 1009.24 1009.38 1009.57 1010.16 1010.46 1010.30 1009.40 1009.01 1009.04 1009.73 1010.15 1010.53 1010.84 1011.45 1011.80
1020.14 1019.47 1018.64 1017.07 1015.98 1016.64 1015.65 1015.45 1015.32 1014.99 1013.26 1010.12 1008.82 1007.92 1008.08 1007.89 1007.72 1007.37 1007.49 1007.71 1008.38 1008.64 1009.20 1009.12 1009.13 1009.24 1009.34 1009.20 1009.26 1009.20 1009.05 1009.26 1009.71 1009.65 1009.74 1010.17 1008.71 1008.56 1008.48 1008.79 1009.31 1009.53 1010.01 1010.34 1010.98
1020.00 1019.52 1018.92 1018.48 1017.80 1016.63 1015.52 1015.31 1014.91 1014.74 1012.24 1009.34 1008.15 1007.62 1007.76 1007.61 1007.29 1007.31 1007.38 1007.53 1007.92 1008.44 1009.08 1008.61 1008.63 1008.75 1008.76 1008.40 1008.63 1008.41 1008.54 1009.06 1009.24 1009.35 1009.55 1010.01 1009.45 1008.08 1008.42 1008.17 1008.04 1008.23 1008.52 1009.06 1009.63
1019.57 1019.31 1018.98 1018.23 1017.90 1016.06 1015.56 1015.14 1014.42 1013.78 1011.03 1008.76 1007.89 1007.62 1007.60 1007.32 1007.02 1007.16 1007.21 1007.40 1007.83 1008.26 1008.66 1008.43 1008.51 1008.29 1007.89 1008.03 1008.26 1008.71 1008.85 1009.24 1009.71 1009.55 1009.22 1008.87 1008.75 1007.44 1007.50 1007.02 1006.73 1006.97 1007.39 1007.84 1008.76
1019.04 1018.46 1018.54 1017.89 1016.52 1015.94 1015.24 1014.38 1014.02 1012.53 1010.49 1009.05 1008.09 1007.75 1007.44 1007.09 1006.93 1006.82 1007.02 1007.32 1007.65 1008.22 1008.22 1008.22 1007.96 1007.61 1007.64 1007.75 1008.26 1008.51 1008.29 1008.50 1008.78 1008.87 1008.59 1009.26 1008.79 1007.13 1006.81 1006.87 1006.90 1006.52 1006.79 1007.21 1008.19
1018.61 1017.80 1017.45 1016.81 1016.33 1016.13 1015.19 1014.40 1013.46 1011.63 1010.41 1009.19 1008.39 1007.88 1007.47 1006.97 1006.81 1006.82 1007.14 1007.33 1007.87 1007.94 1008.12 1007.78 1007.49 1007.21 1006.99 1006.97 1007.10 1007.85 1007.86 1007.94 1008.23 1008.62 1008.68 1009.48 1008.25 1007.03 1006.87 1006.87 1007.01 1007.03 1007.05 1007.46 1007.52
1018.20 1017.05 1016.70 1016.17 1016.23 1016.21 1015.06 1014.02 1012.50 1011.50 1010.65 1009.77 1008.72 1008.18 1007.76 1007.39 1007.11 1007.11 1007.16 1007.10 1007.10 1007.54 1007.91 1007.87 1007.49 1006.96 1006.90 1006.86 1007.14 1008.05 1008.38 1008.47 1008.64 1009.61 1008.87 1008.18 1007.93 1007.03 1006.85 1006.87 1006.97 1006.99 1007.02 1006.90 1007.40
1018.90 1017.81 1016.45 1016.03 1016.05 1015.56 1014.60 1013.49 1012.39 1011.54 1010.85 1010.31 1009.55 1009.04 1008.42 1008.00 1007.62 1007.32 1007.18 1006.95 1007.02 1007.20 1007.28 1007.63 1007.68 1007.19 1007.04 1007.11 1007.60 1007.63 1008.31 1008.77 1008.79 1008.43 1008.02 1007.61 1007.27 1006.23 1006.31 1006.22 1006.57 1006.71 1006.75 1006.99 1007.74
1019.01 1017.68 1016.51 1016.22 1016.15 1015.21 1014.16 1013.36 1012.35 1011.50 1011.17 1010.64 1010.15 1009.66 1009.18 1008.77 1008.35 1007.80 1007.32 1007.06 1006.99 1007.35 1007.61 1007.85 1007.78 1007.54 1007.23 1007.06 1007.08 1008.11 1008.18 1008.64 1008.51 1008.25 1007.38 1006.89 1006.03 1005.87 1005.64 1005.67 1005.96 1006.14 1006.49 1006.88 1007.71
1019.42 1017.84 1016.54 1016.17 1016.00 1015.65 1014.34 1013.51 1012.62 1011.48 1011.10 1010.74 1010.47 1010.19 1009.89 1009.55 1008.97 1008.43 1007.77 1007.26 1006.95 1007.13 1007.66 1008.08 1008.20 1007.64 1007.07 1007.02 1007.16 1007.21 1007.41 1007.84 1007.76 1007.94 1007.86 1006.99 1005.69 1005.56 1005.46 1005.39 1005.69 1005.74 1006.12 1006.70 1007.31
1020.16 1018.61 1016.68 1016.34 1015.92 1015.46 1014.76 1013.71 1012.69 1011.74 1011.18 1010.87 1010.56 1010.46 1010.41 1010.06 1009.85 1009.11 1008.29 1007.34 1007.39 1007.28 1007.36 1007.96 1008.27 1007.81 1007.07 1007.40 1007.37 1007.10 1007.06 1007.24 1007.49 1007.42 1006.85 1006.12 1005.32 1005.34 1005.49 1005.48 1005.36 1005.41 1005.55 1006.17 1006.91
1020.79 1019.17 1017.49 1016.84 1017.07 1016.48 1015.72 1014.20 1013.15 1012.07 1011.52 1011.13 1010.85 1010.79 1010.76 1010.54 1010.27 1009.49 1008.81 1007.96 1007.68 1007.51 1007.36 1007.54 1008.03 1007.39 1006.87 1006.57 1006.80 1006.91 1006.86 1006.97 1006.61 1006.30 1005.57 1005.29 1004.70 1004.92 1004.84 1004.86 1005.09 1005.46 1005.57 1005.99 1006.47
1021.17 1020.37 1020.04 1018.28 1017.64 1017.28 1016.72 1015.59 1014.15 1012.97 1012.18 1011.82 1011.28 1011.10 1011.06 1010.95 1010.54 1010.02 1009.40 1008.71 1007.96 1007.96 1008.11 1008.10 1007.73 1007.58 1007.04 1006.83 1006.84 1006.38 1006.24 1006.43 1006.45 1005.68 1005.23 1004.41 1004.59 1004.27 1004.17 1004.66 1004.74 1004.95 1005.32 1005.66 1005.85
1021.68 1021.25 1020.55 1019.66 1018.80 1017.89 1016.95 1015.92 1015.19 1014.47 1013.83 1012.61 1012.30 1012.10 1011.89 1011.48 1011.02 1010.46 1010.03 1009.61 1008.84 1008.40 1008.31 1008.50 1007.75 1007.52 1006.97 1006.64 1006.48 1006.05 1005.88 1005.80 1005.64 1005.46 1005.11 1004.72 1004.40 1004.19 1004.27 1004.55 1004.68 1004.63 1004.81 1005.03 1005.08
1022.43 1022.14 1021.35 1020.19 1019.32 1018.51 1017.54 1016.88 1016.38 1015.94 1014.75 1014.20 1014.24 1013.52 1012.62 1012.26 1012.16 1011.58 1011.00 1010.30 1009.66 1009.27 1008.71 1008.58 1008.08 1007.85 1006.70 1006.68 1006.18 1005.39 1005.23 1005.04 1004.70 1004.44 1004.07 1003.62 1003.27 1003.84 1003.97 1004.01 1004.11 1004.07 1004.21 1004.38 1004.52
Wind_Speed
20 20 18 18 16 16 16 16 15 13 11 10 8 7 6 7 6 1 5 4 4 4 7 5 2 2 1 3 2 2 1 4 4 7 5 8 6 7 2 12 4 5 4 7 17
20 20 19 19 18 17 16 16 16 14 11 10 7 5 5 5 2 6 7 4 6 8 6 6 5 5 3 2 2 2 2 2 2 6 9 13 12 10 8 11 5 5 11 17 16
20 20 20 19 19 18 17 16 15 14 11 9 7 4 4 4 4 1 1 11 7 6 3 3 4 3 3 1 3 2 2 2 3 7 6 11 10 4 13 10 7 11 17 18 16
21 21 20 21 20 20 19 17 16 14 11 9 6 3 2 3 3 1 3 11 10 4 4 5 3 4 4 5 4 4 1 1 3 3 7 10 10 6 6 3 6 13 18 18 17
21 23 22 22 21 21 21 19 16 15 11 8 5 2 2 3 3 3 8 10 8 5 3 3 3 4 4 3 4 4 1 4 4 8 7 7 5 3 9 1 5 18 18 18 16
22 22 23 23 23 22 21 21 18 13 8 6 4 3 2 1 2 5 12 9 4 4 4 4 2 2 4 2 1 2 4 5 4 8 6 5 3 2 8 5 12 18 19 17 17
22 23 23 24 23 23 23 22 18 9 3 5 6 3 2 2 2 8 9 6 3 2 2 3 2 2 4 4 4 4 6 7 6 3 4 1 4 7 5 10 16 17 16 16 17
23 24 24 25 25 24 23 20 13 5 5 7 5 2 5 3 5 7 5 4 4 4 4 2 1 1 1 7 3 3 3 7 3 4 2 5 11 5 8 13 16 16 14 14 14
23 24 25 26 27 26 22 19 5 3 5 5 3 2 3 6 3 3 5 5 6 4 4 2 2 2 3 7 5 2 8 4 4 5 4 8 10 1 8 11 14 14 14 14 14
23 24 25 26 27 27 24 5 1 1 2 4 1 3 3 3 2 3 3 3 2 4 3 1 2 2 3 5 6 8 6 4 4 8 6 7 13 5 7 11 14 13 14 13 14
25 24 26 27 27 27 12 1 4 1 3 7 7 5 4 4 2 3 4 7 3 2 3 3 4 6 3 1 2 7 5 12 5 6 10 18 19 11 7 10 13 15 13 13 14
25 27 27 28 27 23 3 6 4 4 11 9 13 9 6 3 4 2 8 5 4 4 4 3 6 4 3 1 2 3 5 6 3 1 10 8 19 11 11 13 17 16 16 15 14
24 25 27 29 29 4 4 8 5 4 5 6 5 4 4 11 7 5 9 5 4 6 6 7 3 6 6 5 5 3 6 6 5 4 5 1 11 13 10 13 11 16 16 18 19
23 22 23 33 2 5 2 3 8 4 4 5 2 1 5 6 4 7 8 4 3 8 7 5 4 5 7 6 10 8 15 7 11 9 4 9 5 6 8 11 16 17 18 20 21
23 23 19 15 6 5 4 9 2 3 5 2 2 4 4 7 3 3 3 3 7 6 5 3 7 9 6 6 13 6 9 14 10 7 4 8 6 2 1 11 17 20 22 22 23
24 21 21 2 3 6 10 11 3 1 6 2 3 2 5 4 2 4 4 3 2 5 3 6 2 4 4 3 8 11 7 6 4 4 6 7 9 7 5 10 17 19 19 22 21
27 26 14 3 3 7 8 1 1 4 4 1 1 1 3 6 7 4 8 8 7 5 7 3 5 3 4 4 3 7 7 5 8 7 8 2 6 9 7 9 10 13 16 17 16
29 25 5 4 4 7 3 2 4 2 5 3 3 4 6 5 4 5 4 9 3 3 2 4 7 7 6 9 5 8 4 4 8 7 8 4 6 6 5 5 7 8 10 10 15
25 4 2 1 3 3 2 3 5 4 3 6 6 2 2 1 3 5 7 5 9 12 9 5 5 2 3 2 2 5 5 2 5 2 4 3 4 10 7 8 8 10 10 11 10
6 5 4 6 4 2 2 4 5 4 3 2 3 3 1 2 3 5 7 4 4 11 3 6 5 1 1 2 6 2 8 4 1 5 9 5 3 5 5 10 9 9 9 6 3
3 4 5 4 2 1 4 5 5 6 4 2 2 3 2 3 2 2 3 1 4 3 4 5 4 5 3 5 5 4 4 3 1 2 10 12 8 7 11 9 8 9 8 7 7
3 3 3 2 1 1 3 4 2 3 3 3 2 4 4 3 3 3 3 4 4 6 6 5 3 4 11 1 1 2 4 7 8 6 2 4 7 5 9 8 9 11 8 9 10
3 4 2 3 3 2 3 4 4 3 4 3 3 4 1 1 3 3 4 4 6 8 9 8 3 3 4 3 3 5 7 5 3 2 8 9 5 4 7 9 10 11 11 10 9
3 3 1 3 2 3 5 3 6 4 5 4 3 3 4 3 5 5 3 4 5 4 3 8 4 6 8 3 2 4 5 7 10 8 11 10 14 7 10 11 8 10 9 8 9
2 2 2 2 3 4 2 4 5 4 3 2 3 6 4 4 3 5 5 7 7 4 3 2 8 7 7 7 5 8 10 9 12 14 12 14 11 13 12 6 8 7 6 7 11
2 2 2 3 4 4 2 2 3 6 4 8 7 9 7 8 9 8 7 5 8 2 4 3 8 7 8 10 11 13 12 9 12 11 11 13 12 13 7 7 9 11 10 12 13
1 0 2 1 2 3 1 1 2 7 3 2 10 10 7 7 7 11 11 13 11 4 3 4 6 7 15 9 9 14 14 17 14 11 12 15 16 4 8 10 10 10 10 11 12
Wind_Direction
0 356 351 347 343 342 336 333 332 328 316 301 297 298 307 315 306 246 239 221 154 173 177 132 126 123 102 114 113 166 186 198 181 175 148 156 136 148 83 132 112 148 124 120 139
357 352 346 344 341 338 333 331 329 326 316 305 295 297 311 328 282 247 250 187 170 166 160 172 160 159 139 131 125 208 227 207 191 195 181 162 149 147 144 145 126 129 96 128 147
354 349 344 340 339 336 331 329 325 323 318 311 295 303 312 295 255 224 257 191 173 180 121 121 126 179 172 176 160 151 257 360 203 195 181 150 133 135 149 185 190 177 146 152 162
350 349 343 339 337 334 330 328 322 316 310 302 280 278 298 247 91 138 259 178 170 165 140 136 151 158 168 184 166 245 284 286 115 148 148 155 130 152 174 201 184 163 157 158 172
346 345 342 339 337 334 329 326 317 307 299 287 254 212 169 244 262 24 146 137 133 160 202 177 169 152 171 187 166 227 80 54 86 119 86 120 133 130 185 133 155 146 161 170 180
345 343 340 338 336 334 331 328 321 306 279 261 219 170 230 269 91 146 135 136 149 185 179 197 251 214 110 75 325 73 106 117 70 98 78 139 114 198 185 153 151 163 175 176 186
343 340 338 335 334 335 334 331 328 309 230 195 179 205 227 251 142 158 147 150 152 217 225 209 204 234 139 124 131 119 124 125 57 88 94 119 207 218 132 156 170 183 179 185 194
342 339 337 335 333 335 334 331 337 38 123 147 165 202 262 122 132 160 191 146 171 227 266 342 205 92 11 115 112 150 155 164 118 158 85 218 232 198 161 163 177 187 193 195 198
342 338 336 335 332 332 333 324 321 48 114 145 167 282 251 130 194 169 199 154 149 170 261 100 79 71 150 144 137 50 168 182 142 181 145 212 242 65 181 185 184 192 193 198 201
343 338 335 335 331 329 327 284 204 63 185 214 241 233 223 168 272 161 158 178 131 139 146 158 74 177 126 204 191 165 152 186 217 180 208 218 237 166 188 209 200 197 198 200 207
344 340 335 333 331 328 337 247 342 44 5 249 254 286 271 278 271 170 152 144 133 112 173 32 237 230 237 255 170 126 143 191 205 177 197 223 245 220 209 216 218 205 201 205 207
343 340 335 330 330 321 285 71 68 322 300 250 246 255 276 344 304 217 157 161 174 173 137 172 238 232 128 105 79 119 132 191 296 109 214 235 252 252 229 229 219 215 208 206 200
341 339 335 329 323 5 353 110 351 200 266 300 207 207 207 174 208 235 179 147 158 169 187 218 127 138 180 156 165 213 203 180 242 103 179 97 262 247 224 216 219 220 219 212 205
338 338 338 330 1 343 332 8 331 202 307 280 253 196 147 172 216 185 190 141 155 212 171 231 167 191 180 207 194 204 215 190 173 177 205 194 260 233 233 224 220 219 214 214 210
332 336 339 335 307 294 348 328 340 219 321 50 97 121 132 200 123 155 174 112 186 171 186 213 180 183 217 227 184 221 180 184 185 181 180 184 246 205 218 220 228 225 221 219 213
326 331 336 214 247 266 313 312 186 271 254 346 128 166 160 233 192 123 154 101 112 150 215 242 203 224 232 168 188 144 118 105 109 168 227 213 240 230 200 221 233 235 232 228 220
324 324 313 236 298 322 317 282 203 227 352 1 70 94 238 191 210 174 165 173 189 186 222 222 229 229 187 196 134 187 179 186 218 216 251 141 215 256 247 238 257 260 244 244 230
323 317 177 236 290 325 296 112 211 260 259 323 328 300 214 179 197 192 172 209 190 163 144 209 229 198 172 218 215 191 217 198 225 230 251 156 218 233 277 251 261 279 280 263 249
322 329 284 276 257 194 176 179 220 221 323 333 306 283 219 219 204 182 201 218 203 182 201 182 253 277 229 159 229 148 200 66 118 79 241 197 236 268 225 244 257 268 285 280 256
329 335 320 328 162 245 156 226 230 220 313 332 304 3 275 302 219 200 185 171 196 203 225 196 259 227 69 114 57 196 136 154 192 226 247 202 238 240 203 221 217 249 254 279 220
328 322 18 36 262 281 210 228 260 240 228 232 282 293 298 309 312 263 211 163 201 112 181 145 222 204 258 208 208 153 186 72 117 266 257 261 249 208 212 213 232 243 249 251 208
333 300 23 282 270 353 210 207 257 262 156 249 228 234 252 302 295 270 246 253 174 160 165 172 160 233 243 53 323 204 217 188 242 218 244 292 250 190 221 212 207 240 240 233 218
353 294 339 303 255 239 288 281 265 248 214 184 227 216 175 252 316 255 273 287 235 183 178 180 193 231 221 169 154 224 192 169 106 80 202 238 247 186 229 234 231 240 235 239 226
307 312 333 60 49 341 353 280 262 271 252 217 237 247 267 254 234 274 262 281 336 248 104 145 157 199 234 236 155 233 224 216 208 224 241 235 256 237 230 232 244 249 254 251 241
2 50 12 341 99 357 302 314 304 283 289 257 213 215 177 217 231 230 255 293 274 162 140 239 208 193 241 248 225 241 235 203 221 249 241 256 223 244 252 267 245 233 243 240 243
351 3 359 295 302 299 223 205 319 329 314 285 278 309 252 240 246 277 295 280 264 216 217 176 239 195 233 223 228 244 240 224 225 238 250 257 257 244 259 252 256 254 248 239 247
36 32 280 343 315 289 275 317 49 359 276 13 6 336 309 275 324 287 273 269 262 289 271 246 196 183 239 227 235 248 222 229 233 230 238 246 259 251 240 237 247 258 263 264 267